Weather WX

World > North America > United States > Mississippi

Rosebloom, Mississippi Regional Weather

Lat: 33.88N, Lon: 89.95W
Wx Zone: MSZ020
Feedback

Rosebloom, MS Regional Weather

Expires:201906241900;;012096
ASUS44 KJAN 241810
RWRMS 

MISSISSIPPI HOURLY WEATHER ROUNDUP
NATIONAL WEATHER SERVICE JACKSON MS
100 PM CDT MON JUN 24 2019

NOTE: "FAIR: INDICATES FEW OR NO CLOUDS BELOW 12,000 FEET WITH NO
SIGNIFICANT WEATHER AND/OR OBSTRUCTIONS TO VISIBILITY.


MSZ001>002-007>008-010>013-018>021-025>028-034>036-241900-
NORTHWEST MISSISSIPPI
  
CITY           SKY/WX    TMP DP  RH WIND       PRES   REMARKS
BATESVILLE     FAIR      81  68  65 W9G16     29.91S                  
CLARKSDALE     SUNNY     84  72  65 W7G16     29.91S                  
CLEVELAND      FAIR      79  69  70 W12       29.92F                  
GREENWOOD      FAIR      82  68  62 SW10G16   29.92S                  
6HR MIN TEMP:  69; 6HR MAX TEMP:  82;                                

GREENVILLE       N/A    N/A N/A N/A MISG      29.92S                  
OLIVE BRANCH   PTSUNNY   81  66  61 W12G18    29.90S                  
OXFORD         FAIR      81  66  61 W9G20     29.93S                  
TUNICA           N/A     79  68  69 SW6       29.91S                  
WINONA         FAIR      82  67  59 SW7       29.92F                  
$$


SKY/WX - Weather  TMP - Temperature  DP - Dew Point  RH - Relative Humidity
WIND - Wind Direction/Speed PRES - Barometric Pressure VSB - Visibility
WCI - Wind Chill Index E13G22 Wind - East Wind 13 mph/Gusts of 22 mph